Regional Weather Roundup
Issued by NWS

Home | Current Version | Previous Version | Text Only | Print | Product List | Glossary Off
Versions: 1 2 3 4 5 6 7 8 9 10 11 12 13 14 15 16 17 18 19 20 21 22 23 24 25 26 27 28 29 30 31 32 33 34 35 36 37 38 39 40 41 42 43 44 45 46 47 48 49 50

000
ASUS43 KMPX 240310
RWRMN
WEATHER ROUNDUP FOR MINNESOTA
NATIONAL WEATHER SERVICE TWIN CITIES/CHANHASSEN MN
1000 PM CDT MON MAY 23 2016


NOTE: "FAIR" INDICATES FEW OR NO CLOUDS BELOW 12,000 FEET WITH NO
SIGNIFICANT WEATHER AND/OR OBSTRUCTIONS TO VISIBILITY. N/A MEANS
CURRENT SKY AND/OR WEATHER CONDITIONS ARE NOT AVAILABLE.

MNZ060>063-068>070-240400-
   Twin Cities Metro

CITY           SKY/WX    TMP DP  RH WIND       PRES   REMARKS
TWIN CITIES    MOCLDY    67  59  75 NE6       29.80R
ST PAUL        MOCLDY    66  60  81 NE5       29.81R
CRYSTAL        CLOUDY    63  60  90 CALM      29.79R
BLAINE         CLOUDY    64  64 100 N7        29.81R
EDEN PRAIRIE   PTCLDY    69  60  73 N9        29.79R
SOUTH ST PAUL  CLOUDY    70  58  66 CALM      29.80R
LAKE ELMO      CLOUDY    68  61  77 CALM      29.83R
$$
MNZ001>005-007-008-013>017-022>024-027-028-240400-
   Northwest Minnesota

CITY           SKY/WX    TMP DP  RH WIND       PRES   REMARKS
BEMIDJI        CLOUDY    61  53  75 CALM      29.73S
HALLOCK        CLOUDY    70  46  43 S16G25    29.70R
ROSEAU         CLOUDY    63  48  59 S3        29.70R
WARROAD        PTCLDY    63  52  67 S3        29.70R
THIEF RVR FALL CLOUDY    68  52  56 SE5       29.72R
CROOKSTON      CLEAR     72  46  40 SE3       29.69R
FOSSTON        MOCLDY    64  54  68 CALM      29.72R
DETROIT LAKES  CLOUDY    70  54  56 N5        29.73R
MOORHEAD       CLOUDY    70  54  56 E5        29.70R
PARK RAPIDS    MOCLDY    72  56  57 S10       29.72R
MAHNOMEN       CLOUDY    70  50  50 CALM      29.71R
$$
MNZ006-009>011-018-025>026-240400-
   North Central Minnesota

CITY           SKY/WX    TMP DP  RH WIND       PRES   REMARKS
BAUDETTE       MOCLDY    61  49  64 CALM      29.70R
FLAG ISLAND    CLOUDY    64  54  68 SE5       29.68R
INTL FALLS     CLOUDY    62  56  80 SE3       29.72R
WASKISH        CLOUDY    61  55  82 MISG      29.72R
BIG FORK       CLOUDY    63  54  72 CALM      29.74R
LONGVILLE      CLOUDY    63  61  94 CALM      29.74R
GRAND RAPIDS     N/A    N/A N/A N/A MISG        N/A
CRANE LAKE     CLOUDY    61  59  94 CALM      29.75R
ORR            CLOUDY    64  59  82 CALM      29.72R
COOK           LGT RAIN  64  61  88 CALM      29.75R
WALKER         MOCLDY    65  56  71 SE6       29.73R
$$
MNZ012-019>021-037-240400-
   Northeast Minnesota

CITY           SKY/WX    TMP DP  RH WIND       PRES   REMARKS
DULUTH         LGT RAIN  63  60  90 W7        29.78R
ELY            LGT RAIN  64  55  72 E3        29.77R
HIBBING        CLOUDY    65  59  81 S5        29.75R
EVELETH        LGT RAIN  64  57  77 S6        29.77R
DULUTH HARBOR  TSTM      66  63  88 SW5       29.79R
TWO HARBORS    CLOUDY    66  61  82 W3        29.76R
SILVER BAY     LGT RAIN  64  61  88 CALM      29.77R
GRAND MARAIS     N/A     52  47  83 W3        29.81R
G MARAIS ARPRT CLOUDY    63  54  72 CALM      29.83R
$$
MNZ029>031-032-039>041-046>048-054>057-064-240400-
   West Central Minnesota

CITY           SKY/WX    TMP DP  RH WIND       PRES   REMARKS
FERGUS FALLS   CLOUDY    72  54  53 S3        29.67R
WHEATON        CLOUDY    72  55  56 S6        29.72R
MORRIS         MOCLDY    70  54  56 SW6       29.72R
ALEXANDRIA     LGT RAIN  68  61  78 SE10      29.75R
ELBOW LAKE     FAIR      67  53  59 SW5       29.72R
WADENA         CLOUDY    64  57  77 CALM      29.73R
GLENWOOD       CLOUDY    66  63  88 SE12      29.76R
APPLETON       MOCLDY    70  55  60 SW3       29.72R
BENSON         CLOUDY    72  55  56 W6        29.72R
ORTONVILLE     CLOUDY    66  55  68 S3        29.72R
MADISON        CLOUDY    66  54  63 CALM      29.73R
WILLMAR        FAIR      68  59  73 S5        29.76R
$$
MNZ033>034-036-042>043-049>051-058-059-240400-
   Central Minnesota

CITY           SKY/WX    TMP DP  RH WIND       PRES   REMARKS
ST CLOUD       CLOUDY    64  60  87 S10       29.78R
SAUK CENTRE    MOCLDY    64  63  94 SE10G16   29.76R
PAYNESVILLE    CLOUDY    64  62  94 SE9       29.77R
AITKIN         CLOUDY    63  57  82 CALM      29.73R
PINE RIVER     CLOUDY    64  61  88 CALM      29.77R
BRAINERD       CLOUDY    62  61  96 S3        29.74R
STAPLES        CLOUDY    64  61  88 SE5       29.74R
LONG PRAIRIE   FAIR      63  61  94 SE7       29.77R
LITTLE FALLS   CLOUDY    63  59  88 S3        29.77R
LITCHFIELD     CLOUDY    64  64 100 CALM      29.78S
BUFFALO        RAIN      63  61  93 CALM      29.81R
MAPLE LAKE     LGT RAIN  64  63  97 CALM      29.82R
HUTCHINSON     CLOUDY    64  62  94 CALM      29.79R
$$
MNZ037-044-045-052-053-240400-
   East Central Minnesota

CITY           SKY/WX    TMP DP  RH WIND       PRES   REMARKS
PRINCETON      RAIN      64  63  94 SE12      29.81R
MORA           LGT RAIN  63  61  94 S6        29.80R
CAMBRIDGE      RAIN      64  57  77 S17       29.80R
RUSH CITY      CLOUDY    64  61  90 S9        29.83R
MOOSE LAKE     CLOUDY    63  59  88 CALM      29.74S
HINCKLEY       RAIN      64  64 100 W5        29.79R
CLOQUET        TSTM      63  59  88 NE5       29.75F
MCGREGOR       CLOUDY    63  61  94 CALM      29.75S
$$
MNZ071>073-080-081-089-090-097-098-240400-
   Southwest Minnesota

CITY           SKY/WX    TMP DP  RH WIND       PRES   REMARKS
MONTEVIDEO     CLOUDY    72  61  68 SW7       29.75R
GRANITE FALLS  CLOUDY    68  61  77 S16       29.76R
CANBY          CLOUDY    70  62  74 S3        29.75R
MARSHALL       CLOUDY    66  61  84 S10       29.75R
REDWOOD FALLS  CLOUDY    67  60  78 SW20      29.75R
OLIVIA         CLOUDY    59  54  82 SW16      29.74R
PIPESTONE      CLOUDY    64  61  88 S5        29.78R
WINDOM         CLOUDY    64  61  88 S9        29.77F
WORTHINGTON    CLOUDY    63  61  93 S13       29.79S
JACKSON        LGT RAIN  64  61  88 S6        29.80F
TRACY          CLOUDY    66  61  82 SW13      29.76S
SLAYTON        CLOUDY    64  62  94 S12       29.78S
$$
MNZ065>067-074>077-082>085-091>093-240400-
   South Central Minnesota

CITY           SKY/WX    TMP DP  RH WIND       PRES   REMARKS
MANKATO        CLOUDY    70  59  68 S14G23    29.77R
NEW ULM        CLOUDY    68  63  83 SW20      29.75R
ST JAMES       RAIN      63  57  82 S16       29.77F
FAIRMONT       CLOUDY    64  61  88 S7        29.82R
GLENCOE        MOCLDY    66  64  94 CALM      29.78R
FARIBAULT      PTCLDY    64  61  88 S6        29.80R
OWATONNA       PTCLDY    66  61  82 S12       29.81R
WASECA         CLOUDY    64  59  82 S13G18    29.81R
ALBERT LEA     CLOUDY    68  61  77 S9        29.82R
$$
MNZ078>079-086>088-094>096-240400-
   Southeast Minnesota

CITY           SKY/WX    TMP DP  RH WIND       PRES   REMARKS
ROCHESTER      PTCLDY    64  62  93 S10       29.83R
RED WING       CLOUDY    66  57  72 CALM      29.80R
STANTON        MOCLDY    68  60  74 S7        29.79R
DODGE CENTER   PTCLDY    64  61  88 SW12      29.83R
WINONA         MOCLDY    72  59  64 SW6       29.81R
AUSTIN         PTCLDY    63  61  94 S5        29.83R
PRESTON        PTCLDY    62  60  92 CALM      29.85R
$$
ABBREVIATIONS USED IN REMARKS
   TC - TEMPERATURES IN CELSIUS
  WCI - WIND CHILL INDEX
   HX - HEAT INDEX
  VSB - VISIBILITY
$$




USA.gov is the U.S. government's official web portal to all federal, state and local government web resources and services.